Lid_Strength_Index
12 12 10 11 11 10 11 11 12 10 10 9 7 6 6 6 6 6 6 5 4 4 3 3 3 2 2 1 1 1 1 1 1 1 0 0 1 0 0 0 0 0 0 0
13 11 10 11 10 10 10 10 10 10 10 7 6 6 6 6 6 6 6 5 4 4 3 3 3 2 2 2 1 1 1 1 1 1 1 1 1 1 0 0 0 0 0 0
14 12 11 12 11 10 10 9 9 11 9 7 7 6 6 6 6 6 5 5 4 4 3 3 2 2 2 2 1 1 1 1 1 1 1 1 1 1 1 1 0 1 1 0
13 12 16 13 9 9 11 10 9 9 8 8 8 6 5 4 5 5 5 4 4 3 3 2 2 2 1 1 1 1 1 1 1 1 1 1 1 1 1 1 1 1 1 0
14 14 13 12 10 11 12 12 9 10 9 8 7 6 5 4 4 4 4 4 3 3 2 2 2 1 1 1 1 1 2 1 1 1 1 1 1 1 1 1 1 1 1 1
13 17 17 13 9 8 8 14 9 9 9 9 8 8 7 6 4 3 3 3 3 2 2 2 2 1 2 2 2 2 1 1 1 1 1 1 1 1 1 1 1 1 1 0
13 15 15 10 8 8 15 13 9 8 8 8 9 7 7 6 4 3 3 3 2 2 3 2 2 1 2 2 2 1 1 1 1 0 1 0 1 0 1 1 1 1 1 1
13 16 18 9 9 12 10 8 8 8 8 8 7 6 6 6 4 3 3 3 3 3 3 2 2 2 2 2 1 1 1 1 1 1 1 1 1 1 1 1 1 1 1 1
13 14 9 8 9 8 8 8 8 8 8 7 7 6 6 6 5 3 3 3 2 3 3 2 2 2 2 2 1 1 1 1 1 1 1 1 1 1 1 1 1 2 2 2
12 10 10 9 8 8 8 8 7 7 8 7 7 6 6 5 4 3 3 3 2 3 3 3 2 2 1 1 1 1 1 1 1 1 1 1 1 1 1 1 1 2 2 2
11 10 9 9 8 8 8 8 8 8 8 7 6 6 6 6 4 4 3 3 2 3 3 3 2 2 1 1 1 1 1 1 1 1 1 1 1 1 1 0 2 1 1 1
12 10 10 10 8 8 8 8 8 8 8 7 6 6 6 5 4 3 3 2 3 2 2 2 2 2 1 1 1 1 2 2 2 1 1 1 1 1 11 9 9 10 8 2
9 7 8 7 8 7 8 8 8 8 8 8 6 6 6 4 3 4 3 2 3 3 2 2 2 2 1 1 1 1 2 1 1 2 1 1 2 2 2 5 9 10 9 9
8 7 8 8 8 7 8 7 7 7 8 7 7 5 6 5 3 3 3 2 2 2 2 2 2 2 1 1 1 1 1 5 1 1 1 1 1 1 1 2 2 2 8 6
8 8 8 7 7 6 7 7 7 8 8 8 7 6 5 6 5 3 3 2 2 2 2 3 3 2 2 2 1 1 1 1 1 1 1 1 1 1 1 1 2 2 1 8
8 8 8 8 8 8 7 8 8 8 8 8 7 7 5 5 5 3 3 2 3 3 2 3 3 2 2 1 1 1 1 5 3 1 1 1 1 1 1 1 1 1 2 1
7 9 8 8 8 8 8 8 8 7 7 8 7 6 6 6 6 4 3 2 2 2 2 2 2 2 2 2 1 1 2 2 4 1 1 1 1 1 1 1 1 2 1 1
6 6 6 7 8 7 8 7 8 8 7 7 6 7 7 7 6 5 3 3 2 2 2 1 1 2 2 2 1 1 1 2 3 2 2 2 1 1 1 1 1 1 1 1
4 5 5 5 6 7 7 7 7 7 7 7 7 7 6 6 6 5 4 3 3 4 2 1 7 4 1 3 3 2 2 2 3 2 2 4 2 2 1 1 1 2 1 1
4 4 5 5 5 6 6 6 6 6 7 7 7 7 6 6 6 6 4 3 3 3 2 1 2 1 1 4 8 2 2 2 3 2 2 2 2 2 2 5 2 2 1 1
4 4 5 5 5 6 6 5 5 6 6 6 7 7 7 6 6 6 5 4 2 2 4 6 2 1 1 4 5 2 2 2 2 2 3 3 3 3 3 2 2 2 1 1
4 4 4 4 5 5 5 5 5 6 6 7 7 7 7 6 6 5 4 4 2 10 3 1 2 7 4 11 2 3 2 2 2 3 3 3 3 3 2 2 3 2 2 1
3 4 4 5 5 5 5 5 6 6 6 6 6 6 7 6 6 5 5 3 2 6 2 2 10 17 16 2 1 2 3 2 2 3 3 3 3 3 3 2 2 2 2 1
3 3 4 4 4 4 6 5 6 6 6 5 5 5 5 6 5 4 2 6 10 9 3 3 10 16 16 2 1 2 2 2 2 2 2 9 2 2 2 2 3 2 2 4
3 3 3 4 4 5 5 5 6 7 7 6 6 4 4 4 5 5 4 3 9 8 2 10 16 16 5 1 2 2 2 2 2 3 3 2 3 3 2 2 2 2 2 2
3 3 3 3 3 3 4 5 6 6 7 8 7 7 5 3 3 4 4 7 5 7 3 1 1 2 1 1 1 1 1 3 3 3 4 2 3 2 3 3 3 4 3 3
3 5 3 3 4 4 3 5 7 8 7 7 8 7 6 4 3 4 6 3 3 3 2 1 1 3 1 1 1 2 2 4 9 5 5 5 4 3 4 4 4 5 5 5